User: anonymous   Login
Location: Curupao
(10.4996°N, 66.6442°W)
Time: 11:25:50
(UTC+00:00)
Language:

NOSS 3-2 (A) - Orbit

View from above orbital plane
View from above orbital plane
View from above satellite
View from above satellite

Ground track
Ground track

The orbit data is extracted from the following two-line orbital elements,

1 28095U 03054A   24199.97479966 0.00000250  00000-0  19272-3 0    02
2 28095  63.3890 169.8587 0531296   4.1746 355.8254 13.41682003    07
Epoch (UTC): 17 July 2024 23:23:42
Eccentricity: 0.0531296
inclination: 63.3890°
perigee height: 705 km
apogee height: 1500 km
right ascension of ascending node: 169.8587°
argument of perigee: 4.1746°
revolutions per day: 13.41682003
mean anomaly at epoch: 355.8254°
orbit number at epoch: 0

The dashed part of the orbit path shows where the satellite is in the earth's shadow,  

DLR